Weather in Tersyukskoye

Russia / Kurgan Oblast     56°17′38″N   64°49′13″E
temp.,
°C
wind,
m/s
gust,
m/s
humid.,
%
clouds,
%
prec.,
mm/h
press.,
hPa
HPBL,
m
6 may, thu
thu623:00+18wnw9144769 0.0 996624
02:00+11wnw8136896 0.0 1000994
05:00+9w812655 0.1 10031005
08:00+10w812565 0.0 10061269
11:00+13w9114092 0.0 10072228
14:00+12w9114299 0.0 10102085
17:00+12wnw7113886 0.0 10112083
20:00+10wnw510445 0.0 1013606
7 may, fri
fri723:00+6w24560 0.0 101654
02:00+5w310610 0.0 1017219
05:00+4w39670 0.0 1019167
08:00+10w46525 0.0 1021460
11:00+15w57375 0.0 10211234
14:00+18w56345 0.0 10201657
17:00+19w45355 0.0 10201821
20:00+15sw22500 0.0 102017
8 may, sat
sat823:00+12ssw335312 0.0 102139
02:00+11sw33555 0.0 102130
05:00+9ssw225988 0.0 102113
08:00+14ssw1149100 0.0 1021134
11:00+20se2233100 0.0 10201399
14:00+20s2330100 0.0 10192269
17:00+20ssw1232100 0.0 10181895
20:00+17ssw1145100 0.0 101811
9 may, sun
sun923:00+15nnw3351100 0.1 101854
02:00+13nne3965100 0.2 1018246
05:00+13ne6116699 0.3 1018301
08:00+15ne61063100 0.0 1018527
11:00+20ene684283 0.0 10171679
14:00+17ene364994 0.1 1017246
17:00+16ne71062100 0.3 1017652
20:00+13e4875100 0.4 1019466
10 may, mon
mon1023:00+12nne3586100 0.5 1019111
02:00+12nne4108694 0.0 1019285
05:00+10nne3887100 0.0 1019184
08:00+14ene5856100 0.0 1020494
11:00+18ene5739100 0.0 10211426
14:00+20ene45300 0.0 10211897
17:00+20ene34270 0.0 10211905
20:00+16se11410 0.0 102111